This is the latest recevied weather packets stored in our database for station/object KB1JL-13. If no packets are shown the sender has not sent any weather packets the latest 10 day(s).
| Time | Temp. | Humidity | Pressure | Rain* | Wind** | Luminosity | Snow |
|---|---|---|---|---|---|---|---|
| 1788540912 | 27.22° C | 63% | 1022.2 hPa | 0 mm | - | 285 W/m² | - |
| 1788540611 | 27.22° C | 65% | 1022.6 hPa | 0 mm | - | 582 W/m² | - |
| 1788540306 | 26.67° C | 63% | 1022.6 hPa | 0 mm | - | 616 W/m² | - |
| 1788540003 | 27.22° C | 64% | 1022.2 hPa | 0 mm | - | 620 W/m² | - |
| 1788539701 | 27.22° C | 66% | 1022.6 hPa | 0 mm | - | 618 W/m² | - |
| 1788539396 | 27.22° C | 66% | 1022.2 hPa | 0 mm | - | 642 W/m² | - |
| 1788539091 | 27.22° C | 66% | 1022.2 hPa | 0 mm | - | 646 W/m² | - |
| 1788538787 | 26.67° C | 64% | 1022.2 hPa | 0 mm | - | 626 W/m² | - |
| 1788538482 | 26.67° C | 66% | 1022.6 hPa | 0 mm | - | 615 W/m² | - |
| 1788538178 | 27.22° C | 65% | 1022.6 hPa | 0 mm | - | 649 W/m² | - |
| 1788537872 | 27.22° C | 67% | 1022.6 hPa | 0 mm | - | 693 W/m² | - |
| 1788537567 | 26.67° C | 65% | 1023 hPa | 0 mm | - | 706 W/m² | - |
| 1788537262 | 27.22° C | 67% | 1022.6 hPa | 0 mm | - | 685 W/m² | - |
| 1788536960 | 27.22° C | 67% | 1023 hPa | 0 mm | - | 663 W/m² | - |
| 1788536655 | 26.67° C | 66% | 1023 hPa | 0 mm | - | 687 W/m² | - |
| 1788536350 | 26.11° C | 68% | 1023 hPa | 0 mm | - | 646 W/m² | - |
| 1788536045 | 26.67° C | 69% | 1022.6 hPa | 0 mm | - | 650 W/m² | - |
| 1788535742 | 26.11° C | 69% | 1023.4 hPa | 0 mm | - | 628 W/m² | - |
| 1788535436 | 26.11° C | 69% | 1023 hPa | 0 mm | - | 607 W/m² | - |
| 1788535135 | 26.67° C | 69% | 1023 hPa | 0 mm | - | 646 W/m² | - |
| 1788534830 | 26.11° C | 70% | 1023 hPa | 0 mm | - | 620 W/m² | - |
| 1788534526 | 26.11° C | 72% | 1023.4 hPa | 0 mm | - | 107 W/m² | - |
| 1788534221 | 26.11° C | 72% | 1023.4 hPa | 0 mm | - | 595 W/m² | - |
| 1788533919 | 25.56° C | 73% | 1023.4 hPa | 0 mm | - | 604 W/m² | - |
| 1788533616 | 25.56° C | 72% | 1023 hPa | 0 mm | - | 579 W/m² | - |
* Rain latest hour (hover to see other rain measurements)
** Current wind speed in m/s (hover to see current wind gust speed)